EW9525 Weather Reports


time (UTC)temp
F
wind
direction
speed
knots
gust
knots
rain 1hr
in
rain 24hr
in
rain mn
in
humidity
%
barometer
mb
20260902030009 78 202 2.6 3.5 0.00 0.00 0.00 55 1006.9
20260902024518 79 217 3.5 7.0 0.00 0.00 0.00 51 1006.7
20260902023008 78 236 2.6 4.3 0.00 0.00 0.00 54 1006.6
20260902021508 79 211 3.5 5.2 0.00 0.00 0.00 52 1006.4
20260902020007 80 208 2.6 3.5 0.00 0.00 0.00 50 1006.1
20260902014507 82 217 1.7 2.6 0.00 0.00 0.00 48 1006.1
20260902013005 83 202 0.9 1.7 0.00 0.00 0.00 45 1006.1
20260902011505 84 198 0.0 0.0 0.00 0.00 0.00 44 1006.1
20260902010012 86 193 0.0 0.9 0.00 0.00 0.00 41 1006.1
20260902004504 88 200 0.0 3.5 0.00 0.00 0.00 38 1006.2
20260902003003 89 161 2.6 6.1 0.00 0.00 0.00 38 1006.2
20260902001503 90 188 5.2 8.7 0.00 0.00 0.00 36 1006.1
20260902000003 90 150 5.2 9.6 0.00 0.00 0.00 37 1006.0
20260901234502 90 152 6.1 9.6 0.00 0.00 0.00 36 1005.9
20260901233001 91 180 7.8 11.3 0.00 0.00 0.00 35 1006.0
20260901231601 92 162 7.8 13.9 0.00 0.00 0.00 34 1006.0
20260901230059 92 161 5.2 10.4 0.00 0.00 0.00 38 1006.1
20260901224558 94 135 5.2 9.6 0.00 0.00 0.00 33 1006.2
20260901223058 93 162 7.0 12.2 0.00 0.00 0.00 33 1006.3
20260901221557 94 136 7.0 10.4 0.00 0.00 0.00 34 1006.3
20260901220055 95 157 7.0 10.4 0.00 0.00 0.00 31 1006.5
20260901214552 95 166 4.3 7.8 0.00 0.00 0.00 34 1006.8
20260901213109 93 181 5.2 7.8 0.00 0.00 0.00 35 1006.9
20260901211547 92 210 6.1 11.3 0.00 0.00 0.00 34 1007.3
20260901210045 93 215 8.7 15.6 0.00 0.00 0.00 32 1007.4
20260901204547 91 129 4.3 0.0 0.00 0.00 0.00 41 1007.8
20260901203041 90 158 4.3 7.0 0.00 0.00 0.00 45 1008.1
20260901201540 90 146 4.3 7.0 0.00 0.00 0.00 43 1008.2
20260901200040 92 135 5.2 9.6 0.00 0.00 0.00 39 1008.3
20260901194536 92 161 6.1 9.6 0.00 0.00 0.00 38 1008.3
20260901193033 91 101 7.0 10.4 0.00 0.00 0.00 42 1008.6
20260901191532 91 100 4.3 7.8 0.00 0.00 0.00 42 1008.9
20260901190033 91 86 4.3 9.6 0.00 0.00 0.00 43 1009.1
20260901184540 91 134 5.2 11.3 0.00 0.00 0.00 42 1009.1
20260901183030 90 147 5.2 11.3 0.00 0.00 0.00 43 1009.3
20260901181532 90 139 5.2 8.7 0.00 0.00 0.00 43 1009.9
20260901180024 89 167 3.5 7.8 0.00 0.00 0.00 45 1009.9
20260901174521 88 93 4.3 8.7 0.00 0.00 0.00 44 1010.1
20260901173018 87 77 6.1 9.6 0.00 0.00 0.00 48 1010.0
20260901171516 87 74 5.2 8.7 0.00 0.00 0.00 49 1010.2
20260901170019 86 108 0.9 7.8 0.00 0.00 0.00 48 1010.5
20260901164515 85 172 1.7 6.1 0.00 0.00 0.00 50 1010.8
20260901163013 84 87 2.6 6.1 0.00 0.00 0.00 52 1010.8
20260901161507 82 134 3.5 5.2 0.00 0.00 0.00 56 1010.9
20260901160005 81 43 0.9 4.3 0.00 0.00 0.00 59 1010.8
20260901154503 80 11 1.7 5.2 0.00 0.00 0.00 60 1010.8
20260901153102 80 85 4.3 8.7 0.00 0.00 0.00 62 1010.5
20260901151559 79 84 3.5 6.1 0.00 0.00 0.00 62 1010.6
20260901150107 79 109 0.9 3.5 0.00 0.00 0.00 60 1011.0
20260901144556 79 75 0.0 1.7 0.00 0.00 0.00 60 1011.1
20260901143054 76 85 0.0 1.7 0.00 0.00 0.00 66 1011.0
20260901141551 74 55 2.6 4.3 0.00 0.00 0.00 71 1010.9
20260901140053 72 60 3.5 6.1 0.00 0.00 0.00 75 1011.0
20260901134615 71 46 6.1 7.8 0.00 0.00 0.00 78 1011.0
20260901133056 69 222 0.0 3.5 0.00 0.00 0.00 81 1010.6
20260901131549 67 218 1.7 3.5 0.00 0.00 0.00 84 1010.5
20260901130049 66 199 0.9 1.7 0.00 0.00 0.00 85 1010.2
20260901124554 66 212 0.0 0.0 0.00 0.00 0.00 83 1010.0
20260901123045 67 213 0.0 0.0 0.00 0.00 0.00 80 1009.9
20260901121546 66 138 0.0 1.7 0.00 0.00 0.00 80 1009.7
20260901120044 66 133 0.0 0.9 0.00 0.00 0.00 80 1009.6
20260901114555 68 86 0.9 2.6 0.00 0.00 0.00 76 1009.8
20260901113041 68 292 0.9 3.5 0.00 0.00 0.00 77 1009.9
20260901111541 69 259 0.9 2.6 0.00 0.00 0.00 74 1009.5
20260901110041 69 205 0.0 0.0 0.00 0.00 0.00 73 1009.4
20260901104537 70 145 0.0 0.0 0.00 0.00 0.00 74 1009.4
20260901103035 70 60 0.0 0.0 0.00 0.00 0.00 73 1009.3
20260901101534 70 60 0.0 0.0 0.00 0.00 0.00 73 1009.5
20260901100032 71 226 0.0 0.0 0.00 0.00 0.00 72 1009.6
20260901094531 73 258 0.0 3.5 0.00 0.00 0.00 68 1009.7
20260901093028 74 281 1.7 4.3 0.00 0.00 0.00 67 1009.7
20260901091528 74 252 3.5 7.8 0.00 0.00 0.00 68 1010.2
20260901090026 74 258 1.7 6.1 0.00 0.00 0.00 70 1010.3
20260901084525 72 221 1.7 2.6 0.00 0.00 0.00 80 1010.5
20260901083023 72 243 0.9 4.3 0.00 0.00 0.00 81 1010.6
20260901081529 73 233 0.0 0.0 0.00 0.00 0.00 78 1009.9
20260901080024 73 217 0.0 1.7 0.00 0.00 0.00 78 1010.1
20260901074518 75 285 0.9 1.7 0.00 0.00 0.00 73 1010.1
20260901073019 73 253 0.9 2.6 0.00 0.00 0.00 78 1010.3
20260901071515 75 244 0.9 2.6 0.00 0.00 0.00 72 1010.2
20260901070015 73 285 0.9 4.3 0.00 0.00 0.00 76 1010.1
20260901064514 73 291 0.0 1.7 0.00 0.00 0.00 76 1009.9
20260901063025 74 257 1.7 2.6 0.00 0.00 0.00 76 1009.9
20260901061511 73 221 3.5 4.3 0.00 0.00 0.00 78 1010.1
20260901060009 74 28 3.5 5.2 0.00 0.00 0.00 76 1009.0
20260901054513 75 268 0.0 2.6 0.00 0.00 0.00 73 1009.9
20260901053002 76 8 0.0 0.0 0.00 0.00 0.00 73 1009.8
20260901051501 76 232 0.0 0.0 0.00 0.00 0.00 71 1009.8
20260901050058 76 43 0.0 2.6 0.00 0.00 0.00 72 1009.6
20260901044559 76 20 0.0 0.0 0.00 0.00 0.00 71 1009.6
20260901043059 77 91 0.0 1.7 0.00 0.00 0.00 70 1009.8
20260901041556 77 30 2.6 4.3 0.00 0.00 0.00 70 1010.0
20260901040111 78 268 0.9 4.3 0.00 0.00 0.00 68 1010.4
20260901034555 78 234 0.9 2.6 0.00 0.00 0.00 67 1010.1
20260901033056 77 51 1.7 3.5 0.00 0.00 0.00 70 1009.8
20260901031553 78 83 3.5 6.1 0.00 0.00 0.00 69 1009.4